Satellite-Ground Cal/Val Site Overpasses Predictions

Prediction of Satellite NPP Overpassing Cal/Val Site: Antarctic Dome C

Ground Cal/Val Site Location: Latitude: -75.10, Longitude: 123.35; Satellite-Ground Site NADIR distance within 100 km.

Table of predicted overpasses for the next 14.0 days since TLE Epoch: 11/11/2011
Interval Starting Time Ending Time Minimum Distance Time Minimum Distance (km)
1 11/13/2011 14:57:02 11/13/2011 14:57:30 11/13/2011 14:57:16 29.00
2 11/14/2011 14:37:15 11/14/2011 14:37:30 11/14/2011 14:37:23 84.56
3 11/15/2011 07:38:00 11/15/2011 07:38:27 11/15/2011 07:38:14 37.06
4 11/16/2011 07:18:11 11/16/2011 07:18:28 11/16/2011 07:18:19 79.57
5 11/18/2011 14:57:48 11/18/2011 14:58:15 11/18/2011 14:58:01 33.60
6 11/19/2011 14:37:57 11/19/2011 14:38:14 11/19/2011 14:38:05 80.49
7 11/20/2011 07:38:44 11/20/2011 07:39:10 11/20/2011 07:38:57 41.16
8 11/21/2011 07:18:50 11/21/2011 07:19:09 11/21/2011 07:19:00 75.33
9 11/23/2011 14:58:25 11/23/2011 14:58:53 11/23/2011 14:58:39 37.30
10 11/24/2011 14:38:33 11/24/2011 14:38:52 11/24/2011 14:3
